Iridium 84 - Orbit

View from above orbital plane
View from above orbital plane
View from above satellite
View from above satellite

Ground track
Ground track

The orbit data is extracted from the following two-line orbital elements,

1 25530U 98066D   13170.42472746  .00000255  00000-0  84104-4 0  1638
2 25530 086.3960 239.7514 0002336 110.5372 249.6075 14.34217783767916
Epoch (UTC): 19 June 2013 10:11:36
Eccentricity: 0.0002336
inclination: 86.3960°
perigee height: 776 km
apogee height: 779 km
right ascension of ascending node: 239.7514°
argument of perigee: 110.5372°
revolutions per day: 14.34217783
mean anomaly at epoch: 249.6075°
orbit number at epoch: 76791

The dashed part of the orbit path shows where the satellite is in the earth's shadow,  

Developed and maintained by Chris Peat, Heavens-Above GmbH. Please read the updated FAQ before sending e-mail. Imprint. DLR